When you browse on this site, cookies collect data to enhance your experience and personalize the content and advertising you see.
Visit our Privacy Policy to learn more. By continuing to use the site, you agree to this use of cookies and data.
  • en France
  • Liste des pays
  • À 7 jours
  • Température de l'eau
  • Carte météo
  • Widgets météo
  • user-avatar
    Se connecter

    Météo par heure à Busia

    Ce jour, 2 Juin, Mardi

    Heure Température Précipitation Vent Pression Humidité
    00:00 +22°C° 0 mm 1 m/s 666 mmHg 80%
    01:00 +22°C° 0 mm 1 m/s 666 mmHg 80%
    02:00 +22°C° 0 mm 1 m/s 667 mmHg 77%
    03:00 +22°C° 0 mm 1 m/s 667 mmHg 77%
    04:00 +22°C° 0 mm 1 m/s 666 mmHg 77%
    05:00 +22°C° 0 mm 1 m/s 666 mmHg 78%
    06:00 +23°C° 0 mm 1 m/s 667 mmHg 76%
    07:00 +24°C° 0 mm 1 m/s 667 mmHg 75%
    08:00 +24°C° 0 mm 1 m/s 668 mmHg 73%
    09:00 +26°C° 0.2 mm 2 m/s 668 mmHg 70%
    10:00 +27°C° 0.2 mm 2 m/s 668 mmHg 66%
    11:00 +28°C° 0.2 mm 3 m/s 668 mmHg 62%
    12:00 +28°C° 0.4 mm 3 m/s 667 mmHg 64%
    13:00 +28°C° 0.4 mm 3 m/s 667 mmHg 67%
    14:00 +27°C° 0.4 mm 4 m/s 666 mmHg 69%
    15:00 +27°C° 0.3 mm 3 m/s 666 mmHg 71%
    16:00 +26°C° 0.3 mm 3 m/s 666 mmHg 73%
    17:00 +26°C° 0.3 mm 2 m/s 666 mmHg 76%
    18:00 +24°C° 0.4 mm 2 m/s 666 mmHg 78%
    19:00 +23°C° 0.4 mm 1 m/s 666 mmHg 81%
    20:00 +22°C° 0.4 mm 1 m/s 666 mmHg 83%
    21:00 +22°C° 0.3 mm 1 m/s 666 mmHg 84%
    22:00 +21°C° 0.3 mm 1 m/s 666 mmHg 85%
    23:00 +19°C° 0.3 mm 0 m/s 666 mmHg 86%

    Demain, 3 Juin, Mercredi

    Heure Température Précipitation Vent Pression Humidité
    00:00 +21°C° 0.1 mm 1 m/s 666 mmHg 86%
    01:00 +21°C° 0.1 mm 1 m/s 665 mmHg 87%
    02:00 +21°C° 0.1 mm 1 m/s 665 mmHg 87%
    03:00 +20°C° 0.1 mm 1 m/s 665 mmHg 88%
    04:00 +20°C° 0.1 mm 1 m/s 665 mmHg 88%
    05:00 +20°C° 0.1 mm 1 m/s 665 mmHg 89%
    06:00 +21°C° 0 mm 1 m/s 666 mmHg 85%
    07:00 +23°C° 0 mm 1 m/s 667 mmHg 81%
    08:00 +24°C° 0 mm 1 m/s 667 mmHg 77%
    09:00 +25°C° 0.5 mm 1 m/s 667 mmHg 74%
    10:00 +26°C° 0.5 mm 1 m/s 667 mmHg 71%
    11:00 +27°C° 0.5 mm 1 m/s 667 mmHg 68%
    12:00 +27°C° 1.3 mm 2 m/s 667 mmHg 70%
    13:00 +27°C° 1.3 mm 2 m/s 666 mmHg 72%
    14:00 +27°C° 1.3 mm 3 m/s 666 mmHg 74%
    15:00 +26°C° 0.6 mm 2 m/s 666 mmHg 77%
    16:00 +25°C° 0.6 mm 2 m/s 665 mmHg 80%
    17:00 +25°C° 0.6 mm 2 m/s 665 mmHg 83%
    18:00 +24°C° 0.5 mm 2 m/s 666 mmHg 84%
    19:00 +23°C° 0.5 mm 2 m/s 666 mmHg 85%
    20:00 +22°C° 0.5 mm 1 m/s 666 mmHg 87%
    21:00 +22°C° 0.3 mm 1 m/s 666 mmHg 87%
    22:00 +21°C° 0.3 mm 1 m/s 666 mmHg 88%
    23:00 +21°C° 0.3 mm 1 m/s 666 mmHg 88%

    Après-demain, 4 Juin, Jeudi

    Heure Température Précipitation Vent Pression Humidité
    00:00 +21°C° 0 mm 1 m/s 665 mmHg 89%
    01:00 +21°C° 0 mm 1 m/s 665 mmHg 89%
    02:00 +20°C° 0 mm 1 m/s 665 mmHg 90%
    03:00 +20°C° 0 mm 1 m/s 665 mmHg 89%
    04:00 +20°C° 0 mm 1 m/s 665 mmHg 89%
    05:00 +20°C° 0 mm 1 m/s 665 mmHg 88%
    06:00 +21°C° 0 mm 1 m/s 666 mmHg 85%
    07:00 +22°C° 0 mm 1 m/s 667 mmHg 82%
    08:00 +24°C° 0 mm 1 m/s 667 mmHg 78%
    09:00 +25°C° 0.2 mm 1 m/s 668 mmHg 72%
    10:00 +27°C° 0.2 mm 1 m/s 668 mmHg 67%
    11:00 +28°C° 0.2 mm 1 m/s 668 mmHg 61%
    12:00 +28°C° 0.7 mm 2 m/s 667 mmHg 64%
    13:00 +28°C° 0.7 mm 2 m/s 667 mmHg 68%
    14:00 +27°C° 0.7 mm 3 m/s 666 mmHg 71%
    15:00 +26°C° 1.2 mm 2 m/s 666 mmHg 75%
    16:00 +25°C° 1.2 mm 2 m/s 666 mmHg 80%
    17:00 +24°C° 1.2 mm 1 m/s 666 mmHg 84%
    18:00 +23°C° 0.2 mm 1 m/s 666 mmHg 84%
    19:00 +21°C° 0.2 mm 0 m/s 667 mmHg 84%
    20:00 +20°C° 0.2 mm 0 m/s 667 mmHg 84%
    21:00 +20°C° 0 mm 0 m/s 667 mmHg 86%
    22:00 +19°C° 0 mm 0 m/s 667 mmHg 87%
    23:00 +21°C° 0 mm 1 m/s 666 mmHg 88%

    5 Juin, Vendredi

    Heure Température Précipitation Vent Pression Humidité
    00:00 +21°C° 0.1 mm 1 m/s 666 mmHg 89%
    01:00 +21°C° 0.1 mm 1 m/s 666 mmHg 90%
    02:00 +19°C° 0.1 mm 2 m/s 665 mmHg 91%
    03:00 +19°C° 0 mm 2 m/s 666 mmHg 91%
    04:00 +19°C° 0 mm 2 m/s 666 mmHg 90%
    05:00 +19°C° 0 mm 2 m/s 666 mmHg 90%
    06:00 +20°C° 0 mm 2 m/s 666 mmHg 87%
    07:00 +21°C° 0 mm 2 m/s 667 mmHg 84%
    08:00 +23°C° 0 mm 2 m/s 668 mmHg 81%
    09:00 +24°C° 0.1 mm 2 m/s 668 mmHg 75%
    10:00 +26°C° 0.1 mm 2 m/s 668 mmHg 69%
    11:00 +27°C° 0.1 mm 2 m/s 668 mmHg 63%
    12:00 +27°C° 1.1 mm 2 m/s 668 mmHg 66%
    13:00 +27°C° 1.1 mm 2 m/s 667 mmHg 69%
    14:00 +27°C° 1.1 mm 2 m/s 667 mmHg 71%
    15:00 +26°C° 1 mm 2 m/s 667 mmHg 75%
    16:00 +25°C° 1 mm 2 m/s 667 mmHg 79%
    17:00 +24°C° 1 mm 1 m/s 666 mmHg 83%
    18:00 +23°C° 0.3 mm 1 m/s 667 mmHg 85%
    19:00 +22°C° 0.3 mm 1 m/s 667 mmHg 86%
    20:00 +22°C° 0.3 mm 1 m/s 668 mmHg 87%
    21:00 +22°C° 0.1 mm 1 m/s 668 mmHg 88%
    22:00 +22°C° 0.1 mm 1 m/s 667 mmHg 88%
    23:00 +22°C° 0.1 mm 1 m/s 667 mmHg 88%

    6 Juin, Samedi

    Heure Température Précipitation Vent Pression Humidité
    00:00 +21°C° 0.1 mm 1 m/s 667 mmHg 88%
    01:00 +21°C° 0.1 mm 1 m/s 667 mmHg 87%
    02:00 +21°C° 0.1 mm 1 m/s 666 mmHg 87%
    03:00 +21°C° 0 mm 1 m/s 666 mmHg 87%
    04:00 +21°C° 0 mm 1 m/s 666 mmHg 87%
    05:00 +21°C° 0 mm 1 m/s 666 mmHg 87%
    06:00 +21°C° 0 mm 1 m/s 667 mmHg 86%
    07:00 +21°C° 0 mm 2 m/s 667 mmHg 85%
    08:00 +21°C° 0 mm 2 m/s 668 mmHg 84%
    09:00 +24°C° 0.2 mm 2 m/s 668 mmHg 76%
    10:00 +26°C° 0.2 mm 2 m/s 668 mmHg 69%
    11:00 +28°C° 0.2 mm 2 m/s 668 mmHg 61%
    12:00 +28°C° 0.3 mm 3 m/s 668 mmHg 62%
    13:00 +28°C° 0.3 mm 3 m/s 667 mmHg 63%
    14:00 +28°C° 0.3 mm 4 m/s 667 mmHg 64%
    15:00 +27°C° 0.3 mm 3 m/s 666 mmHg 68%
    16:00 +26°C° 0.3 mm 3 m/s 666 mmHg 71%
    17:00 +25°C° 0.3 mm 2 m/s 666 mmHg 75%
    18:00 +24°C° 0 mm 2 m/s 666 mmHg 77%
    19:00 +23°C° 0 mm 2 m/s 666 mmHg 78%
    20:00 +22°C° 0 mm 1 m/s 667 mmHg 79%
    21:00 +22°C° 0 mm 1 m/s 667 mmHg 80%
    22:00 +21°C° 0 mm 1 m/s 666 mmHg 80%
    23:00 +21°C° 0 mm 1 m/s 666 mmHg 81%

    7 Juin, Dimanche

    Heure Température Précipitation Vent Pression Humidité
    00:00 +21°C° 0 mm 1 m/s 666 mmHg 82%
    01:00 +21°C° 0 mm 1 m/s 666 mmHg 83%
    02:00 +20°C° 0 mm 2 m/s 665 mmHg 83%
    03:00 +20°C° 0 mm 2 m/s 665 mmHg 83%
    04:00 +20°C° 0 mm 2 m/s 666 mmHg 82%
    05:00 +21°C° 0 mm 1 m/s 666 mmHg 82%
    06:00 +22°C° 0 mm 1 m/s 666 mmHg 79%
    07:00 +23°C° 0 mm 1 m/s 667 mmHg 76%
    08:00 +24°C° 0 mm 1 m/s 668 mmHg 73%
    09:00 +25°C° 0.2 mm 1 m/s 668 mmHg 68%
    10:00 +27°C° 0.2 mm 2 m/s 668 mmHg 63%
    11:00 +28°C° 0.2 mm 2 m/s 668 mmHg 58%
    12:00 +28°C° 0.1 mm 2 m/s 667 mmHg 58%
    13:00 +28°C° 0.1 mm 3 m/s 667 mmHg 58%
    14:00 +28°C° 0.1 mm 3 m/s 666 mmHg 59%
    15:00 +27°C° 0 mm 3 m/s 666 mmHg 63%
    16:00 +26°C° 0 mm 3 m/s 666 mmHg 67%
    17:00 +25°C° 0 mm 2 m/s 666 mmHg 71%
    18:00 +24°C° 0 mm 2 m/s 666 mmHg 73%
    19:00 +23°C° 0 mm 1 m/s 666 mmHg 75%
    20:00 +22°C° 0 mm 1 m/s 666 mmHg 77%
    21:00 +21°C° 0 mm 1 m/s 666 mmHg 78%
    22:00 +21°C° 0 mm 1 m/s 666 mmHg 79%
    23:00 +21°C° 0 mm 1 m/s 666 mmHg 80%
    Voir plus